Location: Boullarre
(49.1305°N, 3.0047°E)
Time: 00:31:07
(UTC+00:00)

Cosmos 1461 - Pass Details

Date: 03 February 2023
Orbit: 492 x 644 km, 65.0° (Epoch: 21 March)

Event Time Altitude Azimuth Distance (km) Brightness Sun altitude
Rises 19:17:22 0° 236° (SW) 2,768 7.2 -24.6°
Reaches altitude 10° 19:19:37 10° 243° (WSW) 1,900 6.3 -25.0°
Maximum altitude 19:23:45 45° 317° (NW) 827 3.9 -25.7°
Enters shadow 19:24:29 41° 346° (NNW) 886 3.9 -25.8°
